SIA37U KLAX-WSSS

Flight info

Callsign SIA37U
Flight time N/A
Altitude 34000
Route SUMMR2 MCKEY DCT LIBBO DCT BRINY DCT ALCOA DCT 40N130W 41N140W 39N150W/N0491F360 34N160W 29N170W/N0494F380 27N180E 23N170E 19N160E/N0487F400 16N150E DCT UNZ DCT JOBSS DCT ISGOG DCT ZAM/N0481F430 A341 VSN W461 BRU M646 TOMAN KARTO2B
Aircraft A359/H-SDE2E3GHIJ3J4J5LM1ORWXY/LB1D1

Departure

Time 2026-04-21 17:19
Airport Los Angeles International Airport (KLAX)

Arrival

Time N/A
Airport Singapore Changi Airport (WSSS)
Time Latitude Longitude Altitude Speed Heading
2026-04-21 16:41 33.94396 -118.41123 103 ft 0 kts 84°
2026-04-21 17:05 33.94393 -118.41151 101 ft 4 kts 84°
2026-04-21 17:05 33.94390 -118.41184 101 ft 4 kts 84°
2026-04-21 17:05 33.94387 -118.41212 99 ft 4 kts 63°
2026-04-21 17:05 33.94376 -118.41230 99 ft 4 kts 20°
2026-04-21 17:06 33.94356 -118.41234 99 ft 2 kts 353°
2026-04-21 17:06 33.94333 -118.41231 99 ft 4 kts 353°
2026-04-21 17:06 33.94323 -118.41229 101 ft 0 kts 353°
2026-04-21 17:11 33.94333 -118.41230 103 ft 5 kts 354°
2026-04-21 17:11 33.94347 -118.41232 102 ft 0 kts 353°
2026-04-21 17:13 33.94366 -118.41235 102 ft 7 kts 353°
2026-04-21 17:13 33.94391 -118.41239 102 ft 0 kts 353°
2026-04-21 17:13 33.94420 -118.41243 102 ft 11 kts 353°
2026-04-21 17:14 33.94537 -118.41260 102 ft 20 kts 353°
2026-04-21 17:14 33.94672 -118.41280 103 ft 20 kts 353°
2026-04-21 17:14 33.94782 -118.41260 106 ft 13 kts 50°
2026-04-21 17:14 33.94807 -118.41148 106 ft 19 kts 81°
2026-04-21 17:15 33.94828 -118.40950 107 ft 25 kts 84°
2026-04-21 17:15 33.94848 -118.40748 106 ft 24 kts 82°
2026-04-21 17:15 33.94867 -118.40568 106 ft 20 kts 83°
2026-04-21 17:15 33.94881 -118.40431 106 ft 14 kts 82°
2026-04-21 17:16 33.94893 -118.40313 106 ft 16 kts 83°
2026-04-21 17:16 33.94906 -118.40185 106 ft 16 kts 83°
2026-04-21 17:16 33.94927 -118.39986 106 ft 21 kts 79°
2026-04-21 17:16 33.95002 -118.39917 112 ft 9 kts
2026-04-21 17:17 33.95034 -118.39941 113 ft 6 kts 307°
2026-04-21 17:17 33.95036 -118.39997 112 ft 8 kts 263°
2026-04-21 17:17 33.95036 -118.40001 113 ft 0 kts 264°
2026-04-21 17:18 33.95033 -118.40029 115 ft 20 kts 264°
2026-04-21 17:18 33.94989 -118.40469 111 ft 84 kts 263°
2026-04-21 17:18 33.94895 -118.41391 113 ft 139 kts 263°
2026-04-21 17:19 33.94762 -118.42738 197 ft 178 kts 262°
2026-04-21 17:19 33.94603 -118.44227 762 ft 179 kts 259°
2026-04-21 17:19 33.94448 -118.45686 1490 ft 175 kts 260°
2026-04-21 17:19 33.94314 -118.47178 1731 ft 185 kts 262°
2026-04-21 17:20 33.94246 -118.48802 1833 ft 203 kts 266°
2026-04-21 17:20 33.94210 -118.50558 2007 ft 217 kts 266°
2026-04-21 17:20 33.94133 -118.52438 2217 ft 231 kts 262°
2026-04-21 17:20 33.93972 -118.54422 2436 ft 245 kts 262°
2026-04-21 17:21 33.93794 -118.56506 2785 ft 254 kts 262°
2026-04-21 17:21 33.93622 -118.58636 3219 ft 257 kts 262°
2026-04-21 17:21 33.93450 -118.60780 3724 ft 256 kts 262°
2026-04-21 17:21 33.93284 -118.62905 4349 ft 253 kts 262°
2026-04-21 17:22 33.93175 -118.64296 4795 ft 251 kts 262°
2026-04-21 17:22 33.92963 -118.67081 5578 ft 248 kts 262°
2026-04-21 17:22 33.92802 -118.69147 6088 ft 249 kts 262°
2026-04-21 17:22 33.92637 -118.71235 6561 ft 251 kts 262°
2026-04-21 17:23 33.92473 -118.73330 7021 ft 252 kts 262°
2026-04-21 17:23 33.92309 -118.75440 7503 ft 253 kts 261°
2026-04-21 17:23 33.92142 -118.77567 7904 ft 257 kts 261°
2026-04-21 17:23 33.91973 -118.79712 8350 ft 259 kts 261°
2026-04-21 17:24 33.91807 -118.81845 8864 ft 259 kts 261°
2026-04-21 17:24 33.91721 -118.84028 9325 ft 264 kts 266°
2026-04-21 17:24 33.91770 -118.86253 9774 ft 268 kts 268°
2026-04-21 17:24 33.91842 -118.88506 10228 ft 270 kts 268°
2026-04-21 17:25 33.91913 -118.90805 10466 ft 280 kts 267°
2026-04-21 17:25 33.91984 -118.93196 10645 ft 291 kts 267°
2026-04-21 17:25 33.92056 -118.95681 10820 ft 302 kts 267°
2026-04-21 17:25 33.92131 -118.98251 10983 ft 312 kts 267°
2026-04-21 17:26 33.92343 -119.00905 11167 ft 327 kts 277°
2026-04-21 17:26 33.93172 -119.03539 11413 ft 346 kts 293°
2026-04-21 17:26 33.94431 -119.06064 11636 ft 357 kts 296°
2026-04-21 17:26 33.95776 -119.08616 11788 ft 366 kts 296°
2026-04-21 17:27 33.97151 -119.11239 11995 ft 374 kts 296°
2026-04-21 17:27 33.98543 -119.13912 12220 ft 380 kts 296°
2026-04-21 17:27 33.99966 -119.16628 12553 ft 385 kts 297°
2026-04-21 17:27 34.01704 -119.19137 12843 ft 397 kts 311°
2026-04-21 17:28 34.03900 -119.21216 13182 ft 404 kts 318°
2026-04-21 17:28 34.06206 -119.23178 13495 ft 407 kts 319°
2026-04-21 17:28 34.08531 -119.25146 13815 ft 409 kts 318°
2026-04-21 17:28 34.10864 -119.27133 14115 ft 412 kts 318°
2026-04-21 17:29 34.13207 -119.29139 14387 ft 414 kts 318°
2026-04-21 17:29 34.15530 -119.31133 14665 ft 416 kts 317°
2026-04-21 17:29 34.17891 -119.33164 14945 ft 418 kts 317°
2026-04-21 17:29 34.20264 -119.35209 15215 ft 420 kts 317°
2026-04-21 17:30 34.22685 -119.37297 15492 ft 422 kts 317°
2026-04-21 17:30 34.25048 -119.39337 15783 ft 424 kts 317°
2026-04-21 17:30 34.27459 -119.41421 16034 ft 427 kts 316°
2026-04-21 17:30 34.29883 -119.43518 16322 ft 429 kts 316°
2026-04-21 17:31 34.32318 -119.45625 16591 ft 432 kts 316°
2026-04-21 17:31 34.34765 -119.47744 16897 ft 434 kts 316°
2026-04-21 17:31 34.37224 -119.49876 17195 ft 436 kts 316°
2026-04-21 17:31 34.39682 -119.52043 17468 ft 436 kts 313°
2026-04-21 17:32 34.41234 -119.53639 17655 ft 431 kts 307°
2026-04-21 17:32 34.43898 -119.57140 18073 ft 425 kts 301°
2026-04-21 17:32 34.45814 -119.59863 18362 ft 426 kts 301°
2026-04-21 17:32 34.47738 -119.62608 18620 ft 428 kts 301°
2026-04-21 17:33 34.49666 -119.65355 18870 ft 428 kts 301°
2026-04-21 17:33 34.51599 -119.68102 19111 ft 429 kts 301°
2026-04-21 17:33 34.53541 -119.70863 19290 ft 432 kts 300°
2026-04-21 17:33 34.55491 -119.73642 19536 ft 433 kts 300°
2026-04-21 17:34 34.57447 -119.76428 19771 ft 434 kts 300°
2026-04-21 17:34 34.59410 -119.79225 20023 ft 436 kts 300°
2026-04-21 17:34 34.61377 -119.82030 20311 ft 436 kts 300°
2026-04-21 17:34 34.63341 -119.84832 20525 ft 437 kts 300°
2026-04-21 17:35 34.65317 -119.87656 20805 ft 438 kts 300°
2026-04-21 17:35 34.67293 -119.90481 21079 ft 439 kts 300°
2026-04-21 17:35 34.69272 -119.93312 21363 ft 440 kts 300°
2026-04-21 17:35 34.71250 -119.96144 21662 ft 441 kts 300°
2026-04-21 17:36 34.73233 -119.98996 21747 ft 442 kts 302°
2026-04-21 17:36 34.75226 -120.01862 21911 ft 445 kts 302°
2026-04-21 17:36 34.77234 -120.04737 22206 ft 446 kts 302°
2026-04-21 17:36 34.79241 -120.07611 22458 ft 445 kts 302°
2026-04-21 17:37 34.81241 -120.10483 22656 ft 446 kts 301°
2026-04-21 17:37 34.82599 -120.12439 22781 ft 448 kts 301°
2026-04-21 17:37 34.84612 -120.15334 23006 ft 448 kts 301°
2026-04-21 17:37 34.86624 -120.18230 23269 ft 448 kts 301°
2026-04-21 17:38 34.89288 -120.22073 23540 ft 449 kts 301°
2026-04-21 17:38 34.91303 -120.24985 23680 ft 450 kts 301°
2026-04-21 17:38 34.92667 -120.26958 23819 ft 451 kts 301°
2026-04-21 17:38 34.94691 -120.29884 23997 ft 452 kts 301°
2026-04-21 17:39 34.96721 -120.32821 24079 ft 454 kts 301°
2026-04-21 17:39 34.98760 -120.35772 24256 ft 455 kts 301°
2026-04-21 17:39 35.00797 -120.38721 24451 ft 455 kts 301°
2026-04-21 17:39 35.02840 -120.41684 24623 ft 456 kts 301°
2026-04-21 17:40 35.04884 -120.44652 24782 ft 457 kts 301°
2026-04-21 17:40 35.06932 -120.47628 24942 ft 458 kts 301°
2026-04-21 17:40 35.08960 -120.50575 25119 ft 459 kts 301°
2026-04-21 17:40 35.11015 -120.53566 25273 ft 461 kts 301°
2026-04-21 17:41 35.13074 -120.56566 25420 ft 462 kts 301°
2026-04-21 17:41 35.15141 -120.59580 25577 ft 463 kts 301°
2026-04-21 17:41 35.17212 -120.62602 25751 ft 464 kts 301°
2026-04-21 17:41 35.19287 -120.65633 25936 ft 465 kts 301°
2026-04-21 17:42 35.21364 -120.68667 26100 ft 466 kts 301°
2026-04-21 17:42 35.23453 -120.71724 26262 ft 468 kts 301°
2026-04-21 17:42 35.25542 -120.74782 26428 ft 469 kts 301°
2026-04-21 17:42 35.27630 -120.77844 26590 ft 470 kts 301°
2026-04-21 17:43 35.29725 -120.80919 26758 ft 471 kts 301°
2026-04-21 17:43 35.31827 -120.84005 26917 ft 472 kts 301°
2026-04-21 17:43 35.33930 -120.87095 27091 ft 473 kts 301°
2026-04-21 17:43 35.36037 -120.90194 27254 ft 474 kts 301°
2026-04-21 17:44 35.38145 -120.93299 27425 ft 475 kts 301°
2026-04-21 17:44 35.40263 -120.96420 27733 ft 476 kts 301°
2026-04-21 17:44 35.42386 -120.99538 27979 ft 475 kts 299°
2026-04-21 17:44 35.44500 -121.02659 28146 ft 476 kts 299°
2026-04-21 17:45 35.46614 -121.05790 28272 ft 477 kts 299°
2026-04-21 17:45 35.48733 -121.08928 28387 ft 479 kts 299°
2026-04-21 17:45 35.50874 -121.12073 28534 ft 481 kts 300°
2026-04-21 17:45 35.53046 -121.15202 28666 ft 482 kts 300°
2026-04-21 17:46 35.55233 -121.18328 28784 ft 483 kts 300°
2026-04-21 17:46 35.57426 -121.21460 28913 ft 484 kts 300°
2026-04-21 17:46 35.59619 -121.24597 29100 ft 483 kts 300°
2026-04-21 17:46 35.61805 -121.27735 29288 ft 483 kts 300°
2026-04-21 17:47 35.63978 -121.30865 29445 ft 483 kts 300°
2026-04-21 17:47 35.66160 -121.34018 29591 ft 483 kts 301°
2026-04-21 17:47 35.68333 -121.37163 29743 ft 483 kts 301°
2026-04-21 17:47 35.70509 -121.40317 29893 ft 483 kts 301°
2026-04-21 17:48 35.72684 -121.43471 30054 ft 483 kts 301°
2026-04-21 17:48 35.74834 -121.46591 30176 ft 484 kts 301°
2026-04-21 17:48 35.77011 -121.49753 30298 ft 484 kts 301°
2026-04-21 17:48 35.79217 -121.52959 30448 ft 484 kts 301°
2026-04-21 17:49 35.81358 -121.56072 30608 ft 483 kts 301°
2026-04-21 17:49 35.83528 -121.59230 30775 ft 482 kts 301°
2026-04-21 17:49 35.85719 -121.62423 30939 ft 481 kts 301°
2026-04-21 17:49 35.87880 -121.65575 31104 ft 481 kts 301°
2026-04-21 17:50 35.90035 -121.68723 31257 ft 480 kts 302°
2026-04-21 17:50 35.92187 -121.71869 31406 ft 480 kts 302°
2026-04-21 17:50 35.94339 -121.75019 31529 ft 480 kts 302°
2026-04-21 17:50 35.96487 -121.78166 31659 ft 480 kts 302°
2026-04-21 17:51 35.98792 -121.81190 31764 ft 488 kts 309°
2026-04-21 17:51 36.01453 -121.83865 31869 ft 499 kts 317°
2026-04-21 17:51 36.04442 -121.86103 31981 ft 506 kts 323°
2026-04-21 17:51 36.07550 -121.88159 32105 ft 508 kts 325°
2026-04-21 17:52 36.10663 -121.90115 32224 ft 509 kts 326°
2026-04-21 17:52 36.13875 -121.92091 32344 ft 509 kts 326°
2026-04-21 17:52 36.17046 -121.94033 32487 ft 508 kts 326°
2026-04-21 17:52 36.20209 -121.95980 32648 ft 508 kts 326°
2026-04-21 17:53 36.23370 -121.97939 32784 ft 507 kts 326°
2026-04-21 17:53 36.26520 -121.99904 32896 ft 507 kts 326°
2026-04-21 17:53 36.29671 -122.01879 33050 ft 507 kts 326°
2026-04-21 17:53 36.32818 -122.03857 33218 ft 507 kts 326°
2026-04-21 17:54 36.35965 -122.05838 33327 ft 507 kts 326°
2026-04-21 17:54 36.39109 -122.07820 33431 ft 507 kts 326°
2026-04-21 17:54 36.42251 -122.09803 33534 ft 508 kts 326°
2026-04-21 17:54 36.45404 -122.11792 33660 ft 508 kts 326°
2026-04-21 17:55 36.48550 -122.13778 33767 ft 508 kts 326°
2026-04-21 17:55 36.51700 -122.15769 33867 ft 508 kts 326°
2026-04-21 17:55 36.54847 -122.17760 33976 ft 508 kts 327°
2026-04-21 17:55 36.58015 -122.19767 33972 ft 512 kts 327°
2026-04-21 17:56 36.64338 -122.23779 34040 ft 515 kts 327°
2026-04-21 17:56 36.70767 -122.27858 34041 ft 515 kts 327°
2026-04-21 17:57 36.77143 -122.31914 34026 ft 515 kts 327°
2026-04-21 17:57 36.83528 -122.35984 34031 ft 515 kts 327°
2026-04-21 17:58 36.88162 -122.38943 34025 ft 516 kts 327°
2026-04-21 17:58 36.94551 -122.43030 34020 ft 516 kts 327°
2026-04-21 17:59 37.00935 -122.47121 34017 ft 516 kts 327°
2026-04-21 17:59 37.07281 -122.51196 34010 ft 516 kts 327°
2026-04-21 18:00 37.13707 -122.55329 34008 ft 516 kts 327°
2026-04-21 18:00 37.19828 -122.59275 34003 ft 516 kts 327°
2026-04-21 18:01 37.25876 -122.64064 34007 ft 505 kts 313°
2026-04-21 18:01 37.30298 -122.70601 34004 ft 489 kts 295°
2026-04-21 18:02 37.32745 -122.78409 34006 ft 477 kts 280°
2026-04-21 18:02 37.34258 -122.86520 33998 ft 477 kts 278°
2026-04-21 18:03 37.35652 -122.94670 33999 ft 477 kts 278°
2026-04-21 18:03 37.37065 -123.02814 33991 ft 477 kts 278°
2026-04-21 18:04 37.38500 -123.10952 33995 ft 477 kts 278°
2026-04-21 18:04 37.39940 -123.19089 33992 ft 477 kts 278°
2026-04-21 18:05 37.41376 -123.27240 33994 ft 477 kts 278°
2026-04-21 18:05 37.42803 -123.35383 33996 ft 477 kts 278°
2026-04-21 18:06 37.44224 -123.43530 33993 ft 476 kts 279°
2026-04-21 18:06 37.45637 -123.51669 33996 ft 476 kts 279°
2026-04-21 18:07 37.47045 -123.59813 33995 ft 476 kts 279°
2026-04-21 18:07 37.48445 -123.67949 33990 ft 475 kts 279°
2026-04-21 18:08 37.49839 -123.76083 33998 ft 475 kts 279°
2026-04-21 18:08 37.51228 -123.84220 33987 ft 475 kts 279°
2026-04-21 18:09 37.52609 -123.92353 33993 ft 475 kts 279°
2026-04-21 18:09 37.53986 -124.00488 33992 ft 474 kts 279°
2026-04-21 18:10 37.55355 -124.08618 33990 ft 474 kts 279°
2026-04-21 18:10 37.56717 -124.16743 33989 ft 474 kts 279°
2026-04-21 18:11 37.58073 -124.24871 33984 ft 473 kts 279°
2026-04-21 18:11 37.59422 -124.32986 33988 ft 473 kts 279°
2026-04-21 18:12 37.60765 -124.41108 33985 ft 473 kts 279°
2026-04-21 18:12 37.62100 -124.49215 33987 ft 472 kts 279°
2026-04-21 18:13 37.63429 -124.57324 33987 ft 472 kts 279°
2026-04-21 18:13 37.64742 -124.65370 33990 ft 471 kts 279°
2026-04-21 18:14 37.66713 -124.77516 33984 ft 471 kts 279°
2026-04-21 18:15 37.68020 -124.85615 33982 ft 471 kts 279°
2026-04-21 18:15 37.69320 -124.93711 33983 ft 470 kts 280°
2026-04-21 18:16 37.70613 -125.01799 33983 ft 470 kts 280°
2026-04-21 18:16 37.71899 -125.09887 33981 ft 469 kts 280°
2026-04-21 18:17 37.73179 -125.17964 33982 ft 469 kts 280°
2026-04-21 18:17 37.74452 -125.26040 33981 ft 468 kts 280°
2026-04-21 18:18 37.75715 -125.34093 33983 ft 467 kts 280°
2026-04-21 18:18 37.76974 -125.42153 33985 ft 467 kts 280°
2026-04-21 18:19 37.78226 -125.50206 33988 ft 467 kts 280°
2026-04-21 18:19 37.79463 -125.58200 33984 ft 466 kts 280°
2026-04-21 18:20 37.80701 -125.66244 33990 ft 466 kts 280°
2026-04-21 18:20 37.81933 -125.74283 33981 ft 465 kts 280°
2026-04-21 18:21 37.83517 -125.82208 33982 ft 465 kts 290°
2026-04-21 18:21 37.86603 -125.89403 33982 ft 467 kts 301°
2026-04-21 18:22 37.90283 -125.96182 33983 ft 468 kts 303°
2026-04-21 18:22 37.94046 -126.02906 33986 ft 467 kts 303°
2026-04-21 18:23 37.97160 -126.08504 33983 ft 468 kts 303°
2026-04-21 18:23 38.01485 -126.16354 33989 ft 468 kts 303°
2026-04-21 18:24 38.05195 -126.23124 33983 ft 467 kts 303°
2026-04-21 18:24 38.08276 -126.28757 33985 ft 467 kts 303°
2026-04-21 18:25 38.11970 -126.35524 33984 ft 466 kts 303°
2026-04-21 18:25 38.15661 -126.42297 33975 ft 466 kts 303°
2026-04-21 18:26 38.19344 -126.49068 33977 ft 465 kts 303°
2026-04-21 18:26 38.23017 -126.55836 33985 ft 465 kts 303°
2026-04-21 18:27 38.26689 -126.62616 33982 ft 465 kts 303°
2026-04-21 18:27 38.30355 -126.69398 33981 ft 465 kts 303°
2026-04-21 18:28 38.33993 -126.76142 33974 ft 465 kts 303°
2026-04-21 18:28 38.37648 -126.82932 33975 ft 464 kts 303°
2026-04-21 18:29 38.41295 -126.89722 33978 ft 464 kts 303°
2026-04-21 18:29 38.44931 -126.96505 33980 ft 463 kts 303°
2026-04-21 18:30 38.48560 -127.03289 33967 ft 462 kts 303°
2026-04-21 18:30 38.52181 -127.10074 33965 ft 462 kts 303°
2026-04-21 18:31 38.55796 -127.16860 33979 ft 462 kts 303°
2026-04-21 18:31 38.59383 -127.23608 33975 ft 462 kts 303°
2026-04-21 18:32 38.62997 -127.30421 33989 ft 462 kts 303°
2026-04-21 18:32 38.66600 -127.37227 34187 ft 461 kts 303°
2026-04-21 18:32 38.68394 -127.40620 34350 ft 460 kts 303°
2026-04-21 18:33 38.70189 -127.44019 34476 ft 460 kts 303°
2026-04-21 18:33 38.71980 -127.47416 34597 ft 460 kts 303°
2026-04-21 18:33 38.73770 -127.50814 34715 ft 460 kts 303°
2026-04-21 18:33 38.75561 -127.54215 34846 ft 460 kts 303°
2026-04-21 18:34 38.77348 -127.57615 34955 ft 460 kts 303°
2026-04-21 18:34 38.79134 -127.61015 35068 ft 460 kts 303°
2026-04-21 18:34 38.80895 -127.64373 35187 ft 460 kts 303°
2026-04-21 18:34 38.82680 -127.67778 35290 ft 460 kts 303°
2026-04-21 18:35 38.84463 -127.71184 35385 ft 460 kts 303°
2026-04-21 18:35 38.86248 -127.74597 35490 ft 460 kts 303°
2026-04-21 18:35 38.88030 -127.78008 35597 ft 460 kts 303°
2026-04-21 18:36 38.91593 -127.84839 35782 ft 460 kts 303°
2026-04-21 18:36 38.94864 -127.91121 35940 ft 461 kts 303°
2026-04-21 18:37 38.98133 -127.97414 35965 ft 460 kts 303°
2026-04-21 18:38 39.05995 -128.12598 35963 ft 459 kts 303°
2026-04-21 18:38 39.09528 -128.19444 35960 ft 459 kts 303°
2026-04-21 18:39 39.13030 -128.26245 35964 ft 458 kts 303°
2026-04-21 18:39 39.16547 -128.33090 35959 ft 458 kts 303°
2026-04-21 18:40 39.20059 -128.39940 35958 ft 458 kts 303°
2026-04-21 18:40 39.22971 -128.45631 35963 ft 457 kts 303°
2026-04-21 18:41 39.27014 -128.53548 35955 ft 456 kts 303°
2026-04-21 18:41 39.30498 -128.60386 35951 ft 455 kts 303°
2026-04-21 18:42 39.33972 -128.67221 35953 ft 455 kts 303°
2026-04-21 18:42 39.37440 -128.74057 35950 ft 455 kts 303°
2026-04-21 18:43 39.40902 -128.80895 35950 ft 454 kts 303°
2026-04-21 18:43 39.44352 -128.87726 35946 ft 453 kts 303°
2026-04-21 18:44 39.47799 -128.94565 35955 ft 453 kts 303°
2026-04-21 18:44 39.51237 -129.01401 35945 ft 453 kts 303°
2026-04-21 18:45 39.54667 -129.08235 35940 ft 452 kts 303°
2026-04-21 18:45 39.58088 -129.15066 35934 ft 451 kts 303°
2026-04-21 18:46 39.61475 -129.21844 35949 ft 450 kts 303°
2026-04-21 18:46 39.64873 -129.28659 35933 ft 449 kts 303°
2026-04-21 18:47 39.68259 -129.35466 35942 ft 448 kts 303°
2026-04-21 18:47 39.71639 -129.42273 35939 ft 448 kts 304°
2026-04-21 18:48 39.74897 -129.48849 35921 ft 448 kts 304°
2026-04-21 18:48 39.78227 -129.55584 35938 ft 448 kts 304°
2026-04-21 18:49 39.81588 -129.62396 35932 ft 447 kts 304°
2026-04-21 18:49 39.84372 -129.68052 35926 ft 446 kts 304°
2026-04-21 18:50 39.88271 -129.75988 35927 ft 445 kts 304°
2026-04-21 18:50 39.91594 -129.82768 35922 ft 443 kts 304°
2026-04-21 18:51 39.94906 -129.89539 35925 ft 443 kts 304°
2026-04-21 18:51 39.98170 -129.96333 35921 ft 443 kts 301°
2026-04-21 18:52 40.00470 -130.03790 35923 ft 447 kts 287°
2026-04-21 18:52 40.01773 -130.11739 35919 ft 449 kts 285°
2026-04-21 18:53 40.02897 -130.19748 35915 ft 448 kts 284°
2026-04-21 18:53 40.04002 -130.27733 35918 ft 447 kts 284°
2026-04-21 18:54 40.05114 -130.35650 35916 ft 446 kts 285°
2026-04-21 18:54 40.06238 -130.43596 35915 ft 445 kts 285°
2026-04-21 18:55 40.07168 -130.50195 35913 ft 444 kts 285°
2026-04-21 18:55 40.08466 -130.59453 35918 ft 443 kts 285°
2026-04-21 18:56 40.09568 -130.67366 35916 ft 443 kts 285°
2026-04-21 18:56 40.10664 -130.75275 35919 ft 442 kts 285°
2026-04-21 18:57 40.11753 -130.83176 35918 ft 442 kts 285°
2026-04-21 18:57 40.12837 -130.91083 35919 ft 442 kts 285°
2026-04-21 18:58 40.13908 -130.98931 35923 ft 441 kts 285°
2026-04-21 18:58 40.14980 -131.06825 35924 ft 441 kts 285°
2026-04-21 18:59 40.16048 -131.14734 35930 ft 442 kts 285°
2026-04-21 18:59 40.16938 -131.21356 35930 ft 442 kts 285°
2026-04-21 19:00 40.17987 -131.29212 35935 ft 441 kts 285°
2026-04-21 19:00 40.19037 -131.37125 35937 ft 441 kts 285°
2026-04-21 19:01 40.20081 -131.45023 35940 ft 440 kts 285°
2026-04-21 19:01 40.21118 -131.52918 35947 ft 440 kts 285°
2026-04-21 19:02 40.22150 -131.60807 35942 ft 440 kts 284°
2026-04-21 19:02 40.23175 -131.68692 35954 ft 439 kts 284°
2026-04-21 19:03 40.24193 -131.76567 35958 ft 439 kts 284°
2026-04-21 19:03 40.25205 -131.84435 35961 ft 438 kts 284°
2026-04-21 19:04 40.26211 -131.92302 35965 ft 438 kts 284°
2026-04-21 19:04 40.27211 -132.00170 35971 ft 438 kts 284°
2026-04-21 19:05 40.28206 -132.08042 35975 ft 438 kts 284°
2026-04-21 19:05 40.29196 -132.15912 35978 ft 438 kts 284°
2026-04-21 19:06 40.30174 -132.23735 35979 ft 438 kts 284°
2026-04-21 19:06 40.31159 -132.31658 35984 ft 438 kts 284°
2026-04-21 19:07 40.32126 -132.39487 35990 ft 438 kts 284°
2026-04-21 19:07 40.33096 -132.47377 35995 ft 438 kts 284°
2026-04-21 19:08 40.34059 -132.55263 35996 ft 438 kts 284°
2026-04-21 19:08 40.35018 -132.63158 36002 ft 439 kts 284°
2026-04-21 19:09 40.35972 -132.71060 36004 ft 439 kts 283°
2026-04-21 19:09 40.36921 -132.78965 36007 ft 439 kts 283°
2026-04-21 19:10 40.37864 -132.86873 36011 ft 439 kts 283°
2026-04-21 19:10 40.38801 -132.94780 36015 ft 439 kts 283°
2026-04-21 19:11 40.39736 -133.02712 36017 ft 439 kts 283°
2026-04-21 19:11 40.40664 -133.10635 36018 ft 439 kts 283°
2026-04-21 19:12 40.41588 -133.18563 36022 ft 440 kts 283°
2026-04-21 19:12 40.42500 -133.26446 36027 ft 440 kts 283°
2026-04-21 19:13 40.43413 -133.34383 36027 ft 440 kts 282°
2026-04-21 19:13 40.44321 -133.42328 36033 ft 440 kts 282°
2026-04-21 19:14 40.45222 -133.50267 36034 ft 440 kts 282°
2026-04-21 19:14 40.46119 -133.58212 36036 ft 440 kts 282°
2026-04-21 19:15 40.47011 -133.66170 36044 ft 440 kts 282°
2026-04-21 19:15 40.47899 -133.74132 36042 ft 441 kts 282°
2026-04-21 19:16 40.48781 -133.82102 36048 ft 441 kts 282°
2026-04-21 19:16 40.49657 -133.90066 36051 ft 441 kts 282°
2026-04-21 19:17 40.50957 -134.01982 36056 ft 441 kts 282°
2026-04-21 19:17 40.51822 -134.09972 36056 ft 441 kts 281°
2026-04-21 19:18 40.52680 -134.17958 36059 ft 441 kts 281°
2026-04-21 19:18 40.53534 -134.25955 36059 ft 441 kts 281°
2026-04-21 19:19 40.54382 -134.33949 36076 ft 441 kts 281°
2026-04-21 19:19 40.55225 -134.41947 36068 ft 441 kts 281°
2026-04-21 19:20 40.56061 -134.49944 36073 ft 441 kts 281°
2026-04-21 19:20 40.56892 -134.57940 36076 ft 441 kts 281°
2026-04-21 19:21 40.57718 -134.65939 36078 ft 441 kts 281°
2026-04-21 19:21 40.58538 -134.73940 36089 ft 441 kts 281°
2026-04-21 19:22 40.59353 -134.81945 36087 ft 441 kts 280°
2026-04-21 19:22 40.60162 -134.89950 36093 ft 441 kts 280°
2026-04-21 19:23 40.60966 -134.97961 36095 ft 442 kts 280°
2026-04-21 19:23 40.61764 -135.05972 36096 ft 442 kts 280°
2026-04-21 19:24 40.62552 -135.13935 36098 ft 442 kts 280°
2026-04-21 19:24 40.63340 -135.21963 36107 ft 442 kts 279°
2026-04-21 19:25 40.64122 -135.29985 36107 ft 442 kts 279°
2026-04-21 19:25 40.64900 -135.38023 36111 ft 442 kts 279°
2026-04-21 19:26 40.65671 -135.46063 36113 ft 443 kts 279°
2026-04-21 19:26 40.66438 -135.54106 36115 ft 443 kts 279°
2026-04-21 19:27 40.67199 -135.62155 36120 ft 443 kts 279°
2026-04-21 19:27 40.67956 -135.70215 36122 ft 443 kts 279°
2026-04-21 19:28 40.68708 -135.78275 36120 ft 443 kts 279°
2026-04-21 19:28 40.69454 -135.86344 36126 ft 443 kts 278°
2026-04-21 19:29 40.70194 -135.94411 36129 ft 444 kts 278°
2026-04-21 19:29 40.70929 -136.02484 36130 ft 444 kts 278°
2026-04-21 19:30 40.71659 -136.10560 36132 ft 444 kts 278°
2026-04-21 19:30 40.72383 -136.18648 36134 ft 444 kts 278°
2026-04-21 19:31 40.73102 -136.26735 36140 ft 444 kts 278°
2026-04-21 19:31 40.73816 -136.34832 36142 ft 444 kts 278°
2026-04-21 19:32 40.74520 -136.42877 36144 ft 444 kts 278°
2026-04-21 19:32 40.75222 -136.50970 36140 ft 445 kts 278°
2026-04-21 19:33 40.75919 -136.59075 36155 ft 445 kts 277°
2026-04-21 19:33 40.76611 -136.67191 36156 ft 445 kts 277°
2026-04-21 19:34 40.77298 -136.75310 36148 ft 445 kts 277°
2026-04-21 19:34 40.77978 -136.83422 36157 ft 445 kts 277°
2026-04-21 19:35 40.78988 -136.95593 36158 ft 445 kts 277°
2026-04-21 19:36 40.79654 -137.03709 36157 ft 445 kts 277°
2026-04-21 19:36 40.80314 -137.11824 36162 ft 445 kts 277°
2026-04-21 19:37 40.80968 -137.19933 36160 ft 444 kts 277°
2026-04-21 19:37 40.81617 -137.28048 36163 ft 444 kts 277°
2026-04-21 19:38 40.82255 -137.36110 36172 ft 444 kts 277°
2026-04-21 19:38 40.82789 -137.42902 36173 ft 444 kts 277°
2026-04-21 19:39 40.83523 -137.52327 36175 ft 444 kts 277°
2026-04-21 19:39 40.84147 -137.60427 36168 ft 443 kts 277°
2026-04-21 19:40 40.84766 -137.68531 36169 ft 443 kts 276°
2026-04-21 19:40 40.85378 -137.76631 36178 ft 443 kts 276°
2026-04-21 19:41 40.85985 -137.84723 36179 ft 443 kts 276°
2026-04-21 19:41 40.86586 -137.92819 36179 ft 442 kts 276°
2026-04-21 19:42 40.87179 -138.00898 36181 ft 442 kts 276°
2026-04-21 19:42 40.87768 -138.08989 36183 ft 442 kts 276°
2026-04-21 19:43 40.88351 -138.17069 36186 ft 441 kts 276°
2026-04-21 19:43 40.88927 -138.25148 36191 ft 441 kts 276°
2026-04-21 19:44 40.89497 -138.33206 36189 ft 440 kts 276°
2026-04-21 19:44 40.90060 -138.41259 36195 ft 440 kts 276°
2026-04-21 19:45 40.90617 -138.49304 36196 ft 439 kts 276°
2026-04-21 19:45 40.91075 -138.55981 36195 ft 438 kts 276°
2026-04-21 19:46 40.91620 -138.63995 36202 ft 437 kts 276°
2026-04-21 19:46 40.92158 -138.72001 36205 ft 437 kts 276°
2026-04-21 19:47 40.92691 -138.80001 36204 ft 437 kts 276°
2026-04-21 19:47 40.93218 -138.88004 36207 ft 437 kts 275°
2026-04-21 19:48 40.93739 -138.96004 36211 ft 437 kts 275°
2026-04-21 19:48 40.94254 -139.04001 36213 ft 436 kts 275°
2026-04-21 19:49 40.94764 -139.11999 36213 ft 436 kts 275°
2026-04-21 19:49 40.95268 -139.19989 36215 ft 436 kts 275°
2026-04-21 19:50 40.95766 -139.27979 36219 ft 436 kts 275°
2026-04-21 19:50 40.96259 -139.35970 36224 ft 436 kts 275°
2026-04-21 19:51 40.96746 -139.43958 36222 ft 435 kts 275°
2026-04-21 19:51 40.97224 -139.51889 36226 ft 435 kts 275°
2026-04-21 19:52 40.97699 -139.59876 36227 ft 435 kts 275°
2026-04-21 19:52 40.98170 -139.67864 36232 ft 435 kts 275°
2026-04-21 19:53 40.98635 -139.75861 36230 ft 436 kts 275°
2026-04-21 19:53 40.99094 -139.83851 36234 ft 436 kts 274°
2026-04-21 19:54 40.99548 -139.91854 36234 ft 436 kts 274°
2026-04-21 19:54 40.99753 -139.99870 36232 ft 436 kts 266°
2026-04-21 19:55 40.98849 -140.07817 36234 ft 437 kts 261°
2026-04-21 19:55 40.97654 -140.15706 36236 ft 438 kts 260°
2026-04-21 19:56 40.96410 -140.23592 36238 ft 438 kts 259°
2026-04-21 19:56 40.95176 -140.31472 36238 ft 437 kts 259°
2026-04-21 19:57 40.93950 -140.39353 36240 ft 437 kts 259°
2026-04-21 19:57 40.92723 -140.47233 36239 ft 437 kts 259°
2026-04-21 19:58 40.91490 -140.55106 36243 ft 437 kts 259°
2026-04-21 19:58 40.90252 -140.62981 36244 ft 437 kts 259°
2026-04-21 19:59 40.89016 -140.70795 36243 ft 438 kts 259°
2026-04-21 19:59 40.87765 -140.78670 36247 ft 438 kts 259°
2026-04-21 20:00 40.86509 -140.86537 36245 ft 437 kts 259°
2026-04-21 20:00 40.85249 -140.94397 36249 ft 437 kts 259°
2026-04-21 20:01 40.83983 -141.02259 36251 ft 437 kts 259°
2026-04-21 20:01 40.82712 -141.10114 36253 ft 437 kts 259°
2026-04-21 20:02 40.81435 -141.17969 36250 ft 438 kts 258°
2026-04-21 20:02 40.80152 -141.25827 36253 ft 438 kts 258°
2026-04-21 20:03 40.78862 -141.33685 36251 ft 438 kts 258°
2026-04-21 20:03 40.77567 -141.41547 36255 ft 438 kts 258°
2026-04-21 20:04 40.76266 -141.49408 36256 ft 439 kts 258°
2026-04-21 20:04 40.74959 -141.57265 36259 ft 439 kts 258°
2026-04-21 20:05 40.73654 -141.65081 36260 ft 439 kts 258°
2026-04-21 20:05 40.72336 -141.72940 36259 ft 439 kts 258°
2026-04-21 20:06 40.71013 -141.80792 36264 ft 439 kts 258°
2026-04-21 20:06 40.69683 -141.88648 36258 ft 439 kts 258°
2026-04-21 20:07 40.68348 -141.96504 36266 ft 439 kts 257°
2026-04-21 20:07 40.67006 -142.04362 36262 ft 440 kts 257°
2026-04-21 20:08 40.65658 -142.12222 36265 ft 440 kts 257°
2026-04-21 20:08 40.64304 -142.20083 36264 ft 440 kts 257°
2026-04-21 20:09 40.62955 -142.27885 36263 ft 440 kts 257°
2026-04-21 20:09 40.61589 -142.35745 36270 ft 441 kts 257°
2026-04-21 20:10 40.60216 -142.43612 36268 ft 441 kts 257°
2026-04-21 20:10 40.58840 -142.51469 36269 ft 441 kts 257°
2026-04-21 20:11 40.57455 -142.59334 36268 ft 441 kts 257°
2026-04-21 20:11 40.56065 -142.67199 36272 ft 442 kts 257°
2026-04-21 20:12 40.54669 -142.75068 36277 ft 442 kts 256°
2026-04-21 20:12 40.53266 -142.82941 36274 ft 442 kts 256°
2026-04-21 20:13 40.51920 -142.90462 36276 ft 442 kts 256°
2026-04-21 20:13 40.50508 -142.98318 36276 ft 443 kts 256°
2026-04-21 20:14 40.49095 -143.06145 36280 ft 443 kts 256°
2026-04-21 20:14 40.47669 -143.14019 36278 ft 443 kts 256°
2026-04-21 20:15 40.46235 -143.21899 36277 ft 444 kts 256°
2026-04-21 20:15 40.44795 -143.29777 36284 ft 444 kts 256°
2026-04-21 20:16 40.43347 -143.37668 36282 ft 445 kts 256°
2026-04-21 20:16 40.41894 -143.45557 36285 ft 445 kts 256°
2026-04-21 20:17 40.40432 -143.53460 36283 ft 446 kts 256°
2026-04-21 20:17 40.38965 -143.61358 36284 ft 446 kts 255°
2026-04-21 20:18 40.37740 -143.67925 36287 ft 446 kts 255°
2026-04-21 20:18 40.36010 -143.77168 36295 ft 447 kts 255°
2026-04-21 20:19 40.34522 -143.85079 36289 ft 447 kts 255°
2026-04-21 20:19 40.33028 -143.92990 36286 ft 447 kts 255°
2026-04-21 20:20 40.31529 -144.00900 36293 ft 448 kts 255°
2026-04-21 20:20 40.30021 -144.08822 36294 ft 448 kts 255°
2026-04-21 20:21 40.28507 -144.16742 36291 ft 448 kts 255°
2026-04-21 20:21 40.26986 -144.24669 36293 ft 449 kts 255°
2026-04-21 20:22 40.25460 -144.32590 36291 ft 449 kts 255°
2026-04-21 20:22 40.23168 -144.44427 36294 ft 449 kts 255°
2026-04-21 20:23 40.21626 -144.52356 36300 ft 450 kts 255°
2026-04-21 20:23 40.20076 -144.60289 36295 ft 450 kts 255°
2026-04-21 20:24 40.18521 -144.68221 36301 ft 451 kts 255°
2026-04-21 20:24 40.16958 -144.76159 36301 ft 451 kts 255°
2026-04-21 20:25 40.15388 -144.84100 36300 ft 451 kts 255°
2026-04-21 20:25 40.13811 -144.92048 36304 ft 452 kts 255°
2026-04-21 20:26 40.12230 -144.99985 36307 ft 452 kts 255°
2026-04-21 20:26 40.10639 -145.07937 36306 ft 452 kts 255°
2026-04-21 20:27 40.09042 -145.15892 36306 ft 453 kts 255°
2026-04-21 20:27 40.07440 -145.23845 36310 ft 453 kts 255°
2026-04-21 20:28 40.05828 -145.31811 36305 ft 454 kts 255°
2026-04-21 20:28 40.04211 -145.39774 36307 ft 454 kts 255°
2026-04-21 20:29 40.02597 -145.47686 36309 ft 455 kts 255°
2026-04-21 20:29 40.00955 -145.55713 36309 ft 455 kts 255°
2026-04-21 20:30 39.99328 -145.63630 36314 ft 455 kts 255°
2026-04-21 20:30 39.97680 -145.71619 36314 ft 456 kts 255°
2026-04-21 20:31 39.96027 -145.79607 36318 ft 456 kts 255°
2026-04-21 20:31 39.94366 -145.87600 36313 ft 457 kts 255°
2026-04-21 20:32 39.92698 -145.95595 36315 ft 458 kts 255°
2026-04-21 20:32 39.91020 -146.03609 36317 ft 458 kts 255°
2026-04-21 20:33 39.89337 -146.11619 36317 ft 459 kts 255°
2026-04-21 20:33 39.87646 -146.19634 36316 ft 459 kts 255°
2026-04-21 20:34 39.86234 -146.26302 36315 ft 460 kts 255°
2026-04-21 20:34 39.84528 -146.34333 36317 ft 460 kts 255°
2026-04-21 20:35 39.82817 -146.42358 36316 ft 460 kts 255°
2026-04-21 20:35 39.81100 -146.50382 36319 ft 461 kts 255°
2026-04-21 20:36 39.79375 -146.58413 36320 ft 461 kts 255°
2026-04-21 20:36 39.77645 -146.66437 36321 ft 461 kts 255°
2026-04-21 20:37 39.75906 -146.74472 36320 ft 461 kts 255°
2026-04-21 20:37 39.74163 -146.82495 36316 ft 462 kts 255°
2026-04-21 20:38 39.72412 -146.90530 36317 ft 462 kts 255°
2026-04-21 20:38 39.70657 -146.98552 36319 ft 462 kts 255°
2026-04-21 20:39 39.68896 -147.06566 36313 ft 462 kts 255°
2026-04-21 20:39 39.67130 -147.14576 36314 ft 462 kts 255°
2026-04-21 20:40 39.65371 -147.22531 36313 ft 461 kts 256°
2026-04-21 20:40 39.63594 -147.30534 36312 ft 461 kts 256°
2026-04-21 20:41 39.61814 -147.38523 36313 ft 461 kts 256°
2026-04-21 20:41 39.60027 -147.46514 36313 ft 461 kts 256°
2026-04-21 20:42 39.58238 -147.54489 36314 ft 461 kts 256°
2026-04-21 20:42 39.56443 -147.62458 36313 ft 460 kts 256°
2026-04-21 20:43 39.54644 -147.70418 36312 ft 460 kts 256°
2026-04-21 20:43 39.52841 -147.78368 36313 ft 460 kts 256°
2026-04-21 20:44 39.51033 -147.86311 36311 ft 459 kts 256°
2026-04-21 20:44 39.49223 -147.94235 36311 ft 459 kts 257°
2026-04-21 20:45 39.47419 -148.02106 36310 ft 458 kts 257°
2026-04-21 20:45 39.45600 -148.10016 36310 ft 458 kts 257°
2026-04-21 20:46 39.43779 -148.17906 36312 ft 457 kts 257°
2026-04-21 20:46 39.41954 -148.25784 36318 ft 457 kts 257°
2026-04-21 20:47 39.40129 -148.33640 36315 ft 456 kts 257°
2026-04-21 20:47 39.38300 -148.41485 36311 ft 455 kts 257°
2026-04-21 20:48 39.36467 -148.49321 36318 ft 455 kts 257°
2026-04-21 20:48 39.34631 -148.57142 36314 ft 454 kts 257°
2026-04-21 20:49 39.32793 -148.64946 36316 ft 454 kts 257°
2026-04-21 20:49 39.30951 -148.72742 36313 ft 454 kts 257°
2026-04-21 20:50 39.29105 -148.80526 36315 ft 453 kts 257°
2026-04-21 20:50 39.27264 -148.88263 36317 ft 453 kts 257°
2026-04-21 20:51 39.25408 -148.96040 36313 ft 453 kts 257°
2026-04-21 20:51 39.23549 -149.03803 36315 ft 453 kts 257°
2026-04-21 20:52 39.21684 -149.11563 36315 ft 453 kts 257°
2026-04-21 20:52 39.19818 -149.19305 36311 ft 452 kts 256°
2026-04-21 20:53 39.17946 -149.27046 36315 ft 452 kts 256°
2026-04-21 20:53 39.16071 -149.34771 36314 ft 451 kts 256°
2026-04-21 20:54 39.14194 -149.42483 36312 ft 451 kts 256°
2026-04-21 20:54 39.12311 -149.50191 36309 ft 451 kts 256°
2026-04-21 20:55 39.10425 -149.57889 36316 ft 450 kts 256°
2026-04-21 20:55 39.08538 -149.65569 36309 ft 450 kts 256°
2026-04-21 20:56 39.06647 -149.73237 36305 ft 449 kts 256°
2026-04-21 20:56 39.04765 -149.80844 36306 ft 449 kts 256°
2026-04-21 20:57 39.02867 -149.88494 36311 ft 449 kts 256°
2026-04-21 20:57 39.00965 -149.96134 36307 ft 448 kts 256°
2026-04-21 20:58 38.98479 -150.03510 36303 ft 452 kts 246°
2026-04-21 20:58 38.95497 -150.10631 36313 ft 453 kts 245°
2026-04-21 20:59 38.92435 -150.17699 36307 ft 452 kts 245°
2026-04-21 20:59 38.89376 -150.24749 36305 ft 452 kts 245°
2026-04-21 21:00 38.86327 -150.31798 36305 ft 451 kts 245°
2026-04-21 21:00 38.83283 -150.38835 36306 ft 451 kts 245°
2026-04-21 21:01 38.80239 -150.45860 36305 ft 450 kts 245°
2026-04-21 21:01 38.77193 -150.52870 36301 ft 450 kts 245°
2026-04-21 21:02 38.74143 -150.59876 36300 ft 450 kts 245°
2026-04-21 21:02 38.71113 -150.66817 36298 ft 449 kts 244°
2026-04-21 21:03 38.68062 -150.73793 36303 ft 449 kts 244°
2026-04-21 21:03 38.65009 -150.80756 36298 ft 448 kts 244°
2026-04-21 21:04 38.61957 -150.87702 36293 ft 448 kts 244°
2026-04-21 21:04 38.58902 -150.94643 36292 ft 448 kts 244°
2026-04-21 21:05 38.55843 -151.01574 36291 ft 447 kts 244°
2026-04-21 21:05 38.52784 -151.08492 36291 ft 447 kts 244°
2026-04-21 21:06 38.49723 -151.15399 36293 ft 447 kts 244°
2026-04-21 21:06 38.46662 -151.22293 36292 ft 446 kts 244°
2026-04-21 21:07 38.43596 -151.29180 36293 ft 446 kts 244°
2026-04-21 21:07 38.40529 -151.36056 36284 ft 446 kts 244°
2026-04-21 21:08 38.37460 -151.42922 36287 ft 446 kts 244°
2026-04-21 21:08 38.34387 -151.49780 36290 ft 445 kts 243°
2026-04-21 21:09 38.31335 -151.56577 36291 ft 445 kts 243°
2026-04-21 21:09 38.28261 -151.63409 36288 ft 444 kts 243°
2026-04-21 21:10 38.25188 -151.70225 36287 ft 444 kts 243°
2026-04-21 21:10 38.22106 -151.77046 36287 ft 444 kts 243°
2026-04-21 21:11 38.19023 -151.83854 36287 ft 444 kts 243°
2026-04-21 21:11 38.15938 -151.90654 36288 ft 444 kts 243°
2026-04-21 21:12 38.12847 -151.97451 36286 ft 444 kts 243°
2026-04-21 21:12 38.09753 -152.04240 36285 ft 444 kts 243°
2026-04-21 21:13 38.06656 -152.11022 36285 ft 444 kts 243°
2026-04-21 21:13 38.03559 -152.17789 36285 ft 443 kts 243°
2026-04-21 21:14 38.00461 -152.24545 36284 ft 443 kts 243°
2026-04-21 21:14 37.97354 -152.31305 36290 ft 443 kts 243°
2026-04-21 21:15 37.94252 -152.38043 36280 ft 442 kts 243°
2026-04-21 21:15 37.91149 -152.44767 36281 ft 442 kts 243°
2026-04-21 21:16 37.88043 -152.51484 36278 ft 442 kts 243°
2026-04-21 21:16 37.84933 -152.58195 36280 ft 442 kts 243°
2026-04-21 21:17 37.81840 -152.64858 36275 ft 442 kts 243°
2026-04-21 21:17 37.78727 -152.71548 36278 ft 441 kts 243°
2026-04-21 21:18 37.75612 -152.78228 36276 ft 441 kts 243°
2026-04-21 21:18 37.72491 -152.84908 36273 ft 441 kts 243°
2026-04-21 21:19 37.69374 -152.91566 36275 ft 440 kts 243°
2026-04-21 21:19 37.66256 -152.98213 36277 ft 440 kts 243°
2026-04-21 21:20 37.63134 -153.04854 36274 ft 440 kts 243°
2026-04-21 21:20 37.60015 -153.11476 36275 ft 439 kts 243°
2026-04-21 21:21 37.57420 -153.16975 36273 ft 439 kts 243°
2026-04-21 21:21 37.54299 -153.23575 36272 ft 438 kts 243°
2026-04-21 21:22 37.51175 -153.30172 36268 ft 438 kts 243°
2026-04-21 21:22 37.48055 -153.36744 36268 ft 437 kts 243°
2026-04-21 21:23 37.44934 -153.43306 36262 ft 437 kts 243°
2026-04-21 21:23 37.41811 -153.49858 36278 ft 436 kts 243°
2026-04-21 21:24 37.38689 -153.56396 36271 ft 436 kts 243°
2026-04-21 21:24 37.35566 -153.62924 36264 ft 435 kts 243°
2026-04-21 21:25 37.32442 -153.69440 36261 ft 435 kts 243°
2026-04-21 21:25 37.29316 -153.75945 36262 ft 434 kts 243°
2026-04-21 21:26 37.26192 -153.82435 36268 ft 434 kts 243°
2026-04-21 21:26 37.23067 -153.88915 36253 ft 433 kts 243°
2026-04-21 21:27 37.19967 -153.95332 36260 ft 432 kts 243°
2026-04-21 21:27 37.16850 -154.01770 36256 ft 432 kts 243°
2026-04-21 21:28 37.13732 -154.08199 36258 ft 431 kts 243°
2026-04-21 21:29 37.09027 -154.17874 36259 ft 431 kts 243°
2026-04-21 21:29 37.05925 -154.24239 36255 ft 431 kts 243°
2026-04-21 21:30 37.02794 -154.30650 36251 ft 431 kts 243°
2026-04-21 21:30 36.99665 -154.37044 36252 ft 431 kts 243°
2026-04-21 21:31 36.96531 -154.43438 36253 ft 432 kts 243°
2026-04-21 21:31 36.93389 -154.49835 36252 ft 432 kts 243°
2026-04-21 21:32 36.90239 -154.56236 36249 ft 432 kts 243°
2026-04-21 21:32 36.87084 -154.62635 36247 ft 433 kts 243°
2026-04-21 21:33 36.83917 -154.69045 36248 ft 433 kts 243°
2026-04-21 21:33 36.80749 -154.75446 36246 ft 434 kts 243°